BULGARIASAT-1

Last updated on Wed Sep 17 2025 00:02:49 GMT+0000 (Coordinated Universal Time)

1 42801U 17038A 25259.58407868 -.00000008 00000+0 00000+0 0 9990 2 42801 0.0018 175.6866 0002817 13.0770 19.1804 1.00272477 30096
UTC large
Height (km)
Speed (km/s)
/
Latitude / Longitude
Inclination (degrees)
Orbital Period (minutes)
Azimuth
Elevation
Range (km)
Doppler Factor

Next 0 passes for location: London (51.5072 / 0.1276)

Sorry there are no passes over London.